FW5281 Weather Reports


time (UTC)temp
C
wind
direction
speed
KPH
gust
KPH
rain 1hr
cm
rain 24hr
cm
rain mn
cm
humidity
%
barometer
mb
20260906040035 33 0.0 0.0 0.00 0.00 0.00 58 1010.6
20260906035036 33 0.0 0.0 0.00 0.00 0.00 57 1010.5
20260906034015 33 0.0 0.0 0.00 0.00 0.00 56 1010.5
20260906033015 33 0.0 0.0 0.00 0.00 0.00 55 1010.4
20260906032015 34 0.0 0.0 0.00 0.00 0.00 54 1010.2
20260906031017 34 0.0 0.0 0.00 0.00 0.00 54 1010.2
20260906030015 34 0.0 0.0 0.00 0.00 0.00 52 1010.1
20260906025015 34 0.0 0.0 0.00 0.00 0.00 51 1009.9
20260906024035 35 0.0 0.0 0.00 0.00 0.00 50 1009.7
20260906023015 35 0.0 0.0 0.00 0.00 0.00 48 1009.6
20260906022015 35 0.0 0.0 0.00 0.00 0.00 47 1009.5
20260906021017 35 0.0 0.0 0.00 0.00 0.00 47 1009.4
20260906020037 35 0.0 0.0 0.00 0.00 0.00 46 1009.3
20260906015015 36 0.0 0.0 0.00 0.00 0.00 46 1009.2
20260906014015 36 0.0 0.0 0.00 0.00 0.00 45 1009.0
20260906013016 36 0.0 0.0 0.00 0.00 0.00 45 1008.9
20260906012017 36 0.0 0.0 0.00 0.00 0.00 44 1008.8
20260906011015 36 0.0 0.0 0.00 0.00 0.00 44 1008.7
20260906010015 37 0.0 0.0 0.00 0.00 0.00 44 1008.6
20260906005055 37 0.0 0.0 0.00 0.00 0.00 42 1008.5
20260906004015 37 0.0 0.0 0.00 0.00 0.00 42 1008.5
20260906003015 37 0.0 0.0 0.00 0.00 0.00 41 1008.4
20260906002015 37 0.0 0.0 0.00 0.00 0.00 40 1008.5
20260906001015 37 0.0 0.0 0.00 0.00 0.00 39 1008.5
20260906000035 38 0.0 0.0 0.00 0.00 0.00 39 1008.5
20260905235017 38 0.0 0.0 0.00 0.00 0.00 40 1008.5
20260905234035 38 0.0 0.0 0.00 0.00 0.00 39 1008.5
20260905233015 39 0.0 0.0 0.00 0.00 0.00 39 1008.6
20260905232015 39 0.0 0.0 0.00 0.00 0.00 37 1008.7
20260905231015 40 0.0 0.0 0.00 0.00 0.00 35 1008.6
20260905230015 40 0.0 0.0 0.00 0.00 0.00 36 1008.6
20260905225015 40 0.0 0.0 0.00 0.00 0.00 35 1008.6
20260905224015 40 0.0 0.0 0.00 0.00 0.00 35 1008.4
20260905223015 40 0.0 0.0 0.00 0.00 0.00 35 1008.4
20260905222035 41 0.0 0.0 0.00 0.00 0.00 34 1008.5
20260905221015 41 0.0 0.0 0.00 0.00 0.00 36 1008.5
20260905220015 41 0.0 0.0 0.00 0.00 0.00 36 1008.6
20260905215036 42 0.0 0.0 0.00 0.00 0.00 35 1008.5
20260905214017 41 0.0 0.0 0.00 0.00 0.00 34 1008.5
20260905213036 42 0.0 0.0 0.00 0.00 0.00 35 1008.6
20260905212017 42 0.0 0.0 0.00 0.00 0.00 32 1008.6
20260905211016 43 0.0 0.0 0.00 0.00 0.00 30 1008.8
20260905210015 44 0.0 0.0 0.00 0.00 0.00 29 1008.7
20260905205035 45 0.0 0.0 0.00 0.00 0.00 29 1008.7
20260905204015 45 0.0 0.0 0.00 0.00 0.00 28 1008.8
20260905203035 45 0.0 0.0 0.00 0.00 0.00 28 1009.0
20260905202016 45 0.0 0.0 0.00 0.00 0.00 28 1009.1
20260905201016 45 0.0 0.0 0.00 0.00 0.00 28 1009.2
20260905200058 45 0.0 0.0 0.00 0.00 0.00 29 1009.3
20260905195018 45 0.0 0.0 0.00 0.00 0.00 29 1009.3
20260905194017 45 0.0 0.0 0.00 0.00 0.00 30 1009.6
20260905193017 45 0.0 0.0 0.00 0.00 0.00 30 1009.7
20260905192017 44 0.0 0.0 0.00 0.00 0.00 30 1009.9
20260905191138 44 0.0 0.0 0.00 0.00 0.00 30 1009.8
20260905190018 43 0.0 0.0 0.00 0.00 0.00 30 1009.9
20260905185017 44 0.0 0.0 0.00 0.00 0.00 30 1010.1
20260905184017 44 0.0 0.0 0.00 0.00 0.00 29 1010.2
20260905183017 44 0.0 0.0 0.00 0.00 0.00 31 1010.3
20260905182017 43 0.0 0.0 0.00 0.00 0.00 32 1010.4
20260905181057 43 0.0 0.0 0.00 0.00 0.00 33 1010.5
20260905180017 43 0.0 0.0 0.00 0.00 0.00 33 1010.6
20260905175017 42 0.0 0.0 0.00 0.00 0.00 34 1010.6
20260905174016 42 0.0 0.0 0.00 0.00 0.00 36 1010.7
20260905173017 42 0.0 0.0 0.00 0.00 0.00 37 1010.8
20260905172016 42 0.0 0.0 0.00 0.00 0.00 38 1011.0
20260905171016 41 0.0 0.0 0.00 0.00 0.00 37 1011.1
20260905170017 41 0.0 0.0 0.00 0.00 0.00 38 1011.2
20260905165017 40 0.0 0.0 0.00 0.00 0.00 37 1011.3
20260905164016 40 0.0 0.0 0.00 0.00 0.00 38 1011.5
20260905163016 40 0.0 0.0 0.00 0.00 0.00 41 1011.5
20260905162017 40 0.0 0.0 0.00 0.00 0.00 40 1011.5
20260905161017 40 0.0 0.0 0.00 0.00 0.00 41 1011.6
20260905160017 39 0.0 0.0 0.00 0.00 0.00 42 1011.6
20260905155016 38 0.0 0.0 0.00 0.00 0.00 44 1011.6
20260905154017 38 0.0 0.0 0.00 0.00 0.00 45 1011.7
20260905153017 37 0.0 0.0 0.00 0.00 0.00 47 1011.7
20260905152017 36 0.0 0.0 0.00 0.00 0.00 49 1011.7
20260905151016 35 0.0 0.0 0.00 0.00 0.00 51 1011.7
20260905150016 34 0.0 0.0 0.00 0.00 0.00 55 1011.6
20260905145016 33 0.0 0.0 0.00 0.00 0.00 56 1011.6
20260905144016 32 0.0 0.0 0.00 0.00 0.00 58 1011.5
20260905143016 31 0.0 0.0 0.00 0.00 0.00 61 1011.5
20260905142036 31 0.0 0.0 0.00 0.00 0.00 62 1011.5
20260905141036 31 0.0 0.0 0.00 0.00 0.00 62 1011.6
20260905140037 30 0.0 0.0 0.00 0.00 0.00 62 1011.6
20260905135016 30 0.0 0.0 0.00 0.00 0.00 64 1011.5
20260905134016 30 0.0 0.0 0.00 0.00 0.00 65 1011.4
20260905133016 30 0.0 0.0 0.00 0.00 0.00 65 1011.3
20260905131016 29 0.0 0.0 0.00 0.00 0.00 67 1011.2
20260905130016 29 0.0 0.0 0.00 0.00 0.00 67 1011.2
20260905125056 29 0.0 0.0 0.00 0.00 0.00 68 1011.1
20260905124016 29 0.0 0.0 0.00 0.00 0.00 67 1011.0
20260905123016 29 0.0 0.0 0.00 0.00 0.00 68 1010.9
20260905122036 29 0.0 0.0 0.00 0.00 0.00 70 1010.8
20260905121016 29 0.0 0.0 0.00 0.00 0.00 70 1010.8
20260905120036 29 0.0 0.0 0.00 0.00 0.00 70 1010.7
20260905115016 29 0.0 0.0 0.00 0.00 0.00 70 1010.7
20260905114016 29 0.0 0.0 0.00 0.00 0.00 70 1010.6
20260905113016 30 0.0 0.0 0.00 0.00 0.00 69 1010.5
20260905112016 30 0.0 0.0 0.00 0.00 0.00 69 1010.5
20260905111016 30 0.0 0.0 0.00 0.00 0.00 68 1010.4
20260905110017 30 0.0 0.0 0.00 0.00 0.00 68 1010.3
20260905105016 30 0.0 0.0 0.00 0.00 0.00 68 1010.4
20260905104017 30 0.0 0.0 0.00 0.00 0.00 67 1010.4
20260905103017 30 0.0 0.0 0.00 0.00 0.00 67 1010.5
20260905102017 30 0.0 0.0 0.00 0.00 0.00 66 1010.5
20260905101019 30 0.0 0.0 0.00 0.00 0.00 66 1010.6
20260905100017 30 0.0 0.0 0.00 0.00 0.00 66 1010.6
20260905095020 30 0.0 0.0 0.00 0.00 0.00 66 1010.5
20260905094017 30 0.0 0.0 0.00 0.00 0.00 65 1010.5
20260905093016 30 0.0 0.0 0.00 0.00 0.00 65 1010.5
20260905092017 30 0.0 0.0 0.00 0.00 0.00 64 1010.6
20260905091017 31 0.0 0.0 0.00 0.00 0.00 63 1010.6
20260905090017 31 0.0 0.0 0.00 0.00 0.00 64 1010.6
20260905085016 31 0.0 0.0 0.00 0.00 0.00 64 1010.5
20260905084056 31 0.0 0.0 0.00 0.00 0.00 63 1010.5
20260905083016 31 0.0 0.0 0.00 0.00 0.00 63 1010.5
20260905082016 31 0.0 0.0 0.00 0.00 0.00 63 1010.6
20260905081016 31 0.0 0.0 0.00 0.00 0.00 62 1010.7
20260905080016 31 0.0 0.0 0.00 0.00 0.00 62 1010.8
20260905075016 31 0.0 0.0 0.00 0.00 0.00 61 1010.9
20260905074017 31 0.0 0.0 0.00 0.00 0.00 61 1010.9
20260905073017 31 0.0 0.0 0.00 0.00 0.00 60 1010.9
20260905072020 31 0.0 0.0 0.00 0.00 0.00 59 1010.9
20260905071017 31 0.0 0.0 0.00 0.00 0.00 59 1010.9
20260905070016 31 0.0 0.0 0.00 0.00 0.00 58 1011.0
20260905065016 32 0.0 0.0 0.00 0.00 0.00 58 1011.0
20260905064016 32 0.0 0.0 0.00 0.00 0.00 58 1010.9
20260905063056 32 0.0 0.0 0.00 0.00 0.00 58 1011.0
20260905062016 32 0.0 0.0 0.00 0.00 0.00 57 1011.0
20260905061016 32 0.0 0.0 0.00 0.00 0.00 56 1011.1
20260905060036 32 0.0 0.0 0.00 0.00 0.00 57 1011.1
20260905055056 32 0.0 0.0 0.00 0.00 0.00 56 1011.1
20260905054056 32 0.0 0.0 0.00 0.00 0.00 56 1011.1
20260905053016 32 0.0 0.0 0.00 0.00 0.00 55 1011.1
20260905052016 32 0.0 0.0 0.00 0.00 0.00 56 1011.1
20260905051016 32 0.0 0.0 0.00 0.00 0.00 55 1011.1
20260905050016 32 0.0 0.0 0.00 0.00 0.00 55 1011.0
20260905045016 33 0.0 0.0 0.00 0.00 0.00 54 1011.0
20260905044015 33 0.0 0.0 0.00 0.00 0.00 54 1010.9
20260905043015 33 0.0 0.0 0.00 0.00 0.00 54 1010.9
20260905042015 33 0.0 0.0 0.00 0.00 0.00 53 1010.9
20260905041015 33 0.0 0.0 0.00 0.00 0.00 52 1010.8